NUVIEW BRAVO

Last updated on Sun Jun 21 2026 00:03:09 GMT+0000 (Coordinated Universal Time)

1 62457U 24252D 26171.37551706 -.00000219 00000+0 00000+0 0 9991 2 62457 0.0743 146.5525 0002084 337.9215 196.1742 1.00271802 3826
UTC large
Height (km)
Speed (km/s)
/
Latitude / Longitude
Inclination (degrees)
Orbital Period (minutes)
Azimuth
Elevation
Range (km)
Doppler Factor

Next 0 passes for location: London (51.5072 / 0.1276)

No passes found over London.
NUVIEW BRAVO